MST,Max TemperatureF,Mean TemperatureF,Min TemperatureF,Max Dew PointF,MeanDew PointF,Min DewpointF,Max Humidity, Mean Humidity, Min Humidity, Max Sea Level PressureIn, Mean Sea Level PressureIn, Min Sea Level PressureIn, Max VisibilityMiles, Mean VisibilityMiles, Min VisibilityMiles, Max Wind SpeedMPH, Mean Wind SpeedMPH, Max Gust SpeedMPH,PrecipitationIn, CloudCover, Events, WindDirDegrees
2011-12-1,25,9,-7,23,12,-9,100,84,67,30.53,30.32,30.07,10,4,0,24,10,31,0.04,5,Fog-Snow,34
2011-12-2,33,13,-7,21,11,-9,92,78,63,30.34,30.01,29.78,10,6,0,22,8,26,0.02,4,Fog-Snow,62
2011-12-3,20,2,-16,14,-2,-18,92,81,70,30.29,30.02,29.91,10,5,0,23,7,28,T,4,Fog-Snow,240
2011-12-4,16,2,-12,11,3,-14,87,80,73,30.53,30.20,29.92,10,8,1,15,6,18,T,8,Snow,2
2011-12-5,-2,-15,-29,-9,-23,-31,100,86,71,30.74,30.36,30.08,10,6,1,9,4,10,0.00,1,,234
2011-12-6,15,-6,-27,6,-8,-24,88,77,66,30.55,30.46,30.33,10,10,10,12,5,13,0.00,0,,67
2011-12-7,22,11,-1,11,5,-2,95,79,62,30.45,30.30,30.07,10,10,10,13,6,15,0.00,0,,42
2011-12-8,23,17,10,18,13,6,88,72,56,30.23,30.12,29.99,10,8,0,22,7,24,T,5,Fog-Snow,40
2011-12-9,27,17,6,16,8,4,88,72,55,30.48,30.33,30.09,10,10,10,25,8,29,0.00,1,,45
2011-12-10,23,9,-6,13,3,-8,100,84,68,30.57,30.33,30.06,10,7,0,10,4,12,0.00,0,Fog,184
2011-12-11,33,14,-6,19,9,-8,87,71,54,30.25,30.06,29.89,10,9,0,26,10,30,0.00,0,Fog,222
2011-12-12,32,19,6,19,11,2,88,73,58,30.17,30.09,29.96,10,10,10,21,9,24,0.00,1,,177
2011-12-13,32,19,5,22,12,3,96,82,68,30.09,30.01,29.90,10,10,10,13,5,13,0.00,3,,281
2011-12-14,28,15,2,16,11,0,92,78,63,30.20,29.99,29.77,10,8,1,20,7,23,0.00,2,,304
2011-12-15,30,17,3,17,8,3,100,82,63,30.37,30.25,30.07,10,10,9,12,5,14,0.00,0,,220
2011-12-16,28,15,2,15,8,1,91,74,56,30.54,30.42,30.19,10,10,10,17,5,20,0.00,1,,82
2011-12-17,25,14,2,13,6,-2,91,73,54,30.60,30.49,30.27,10,10,10,12,5,14,0.00,0,,13
2011-12-18,46,26,6,24,13,3,83,58,32,30.39,30.10,29.94,10,10,10,24,8,29,0.00,0,,246
2011-12-19,24,15,6,21,14,4,96,79,62,30.28,30.15,29.98,10,10,10,17,7,20,T,5,,106
2011-12-20,24,12,-1,15,7,-1,96,84,71,30.22,30.08,29.94,10,10,4,13,5,15,0.00,0,,55
2011-12-21,29,18,6,19,15,6,88,75,62,30.11,29.90,29.71,10,7,2,28,12,38,T,6,Snow,349
2011-12-22,18,0,-18,16,-2,-20,100,88,76,30.61,30.25,30.02,10,4,0,17,6,23,T,4,Fog-Snow,259
2011-12-23,18,-2,-22,7,-6,-22,91,75,59,30.76,30.66,30.60,10,10,10,12,4,12,0.00,0,,67
2011-12-24,16,1,-14,6,-2,-16,91,79,66,30.84,30.72,30.37,10,10,10,10,3,12,0.00,0,,19
2011-12-25,31,14,-4,18,4,-8,87,73,58,30.77,30.52,30.12,10,10,10,26,7,30,0.00,0,,224
2011-12-26,34,23,12,18,12,6,67,53,38,30.26,30.14,30.06,10,10,8,33,12,45,0.00,0,,252
2011-12-27,35,25,14,16,12,4,71,55,39,30.20,30.11,30.01,10,10,10,39,21,45,0.00,1,,244
2011-12-28,39,30,21,29,22,12,75,63,50,30.12,30.05,29.92,10,10,10,39,22,55,0.00,1,,237
2011-12-29,40,35,29,29,24,16,70,61,52,29.94,29.80,29.63,10,10,10,59,36,68,T,3,,279
2011-12-30,47,37,27,29,22,12,63,55,47,29.94,29.82,29.57,10,10,10,36,19,45,0.00,0,,241
2011-12-31,41,28,16,23,12,3,71,58,44,30.39,29.97,29.46,10,10,10,33,18,41,0.00,3,Rain,254